Regional Weather Roundup
Issued by NWS

Home | Current Version | Previous Version | Text Only | Print | Product List | Glossary On
Versions: 1 2 3 4 5 6 7 8 9 10 11 12 13 14 15 16 17 18 19 20 21 22 23 24 25 26 27 28 29 30 31 32 33 34 35 36 37 38 39 40 41 42 43 44 45 46 47 48 49 50
000
ASUS45 KREV 280910
RWRNV
NEVADA REGIONAL WEATHER ROUNDUP
NATIONAL WEATHER SERVICE RENO NV
200 AM PDT SUN MAY 28 2017

NOTE: "FAIR" INDICATES FEW OR NO CLOUDS BELOW 12,000 FEET WITH NO
SIGNIFICANT WEATHER AND/OR OBSTRUCTIONS TO VISIBILITY.

NVZ001-003-004-281000-
WESTERN NEVADA

CITY           SKY/WX    TMP DP  RH WIND       PRES   REMARKS
RENO           CLEAR     57  26  30 W3        30.17S
CARSON CITY    FAIR      54  25  32 NW3       30.20S
MINDEN         FAIR      39  28  65 CALM      30.20S
FALLON         CLEAR     55  28  35 CALM      30.12S
LOVELOCK       CLEAR     56  25  30 E6        30.13S
HAWTHORNE      CLEAR     57  27  30 SW7       30.14R
$$

NVZ002-CAZ072-073-281000-
NORTHERN AND CENTRAL SIERRA

CITY           SKY/WX    TMP DP  RH WIND       PRES   REMARKS
S. LAKE TAHOE  CLEAR     39  30  70 S5        30.26S
TRUCKEE        CLEAR     34  32  93 CALM      30.27S
SQUAW VLY 8000   N/A     37  30  75 SW1         N/A
SUSANVILLE     CLEAR     45  32  61 W5        30.17R
MAMMOTH LAKES  FAIR      43  21  41 W7        30.30S
BRIDGEPORT     FAIR      38  23  55 CALM      30.29R
$$

NVZ030-031-036-281000-
NORTHERN NEVADA

CITY           SKY/WX    TMP DP  RH WIND       PRES   REMARKS
ELKO           CLEAR     46  33  60 CALM      30.24R
WINNEMUCCA     CLEAR     57  35  43 NE10      30.18S
WENDOVER       CLEAR     54  33  45 CALM      30.22
$$

NVZ035-037-281000-
CENTRAL NEVADA

CITY           SKY/WX    TMP DP  RH WIND       PRES   REMARKS
ELY            CLEAR     36  22  56 S10       30.29F
EUREKA           N/A     39  26  59 S6        30.25F
$$

NVZ013-014-281000-
SOUTH CENTRAL NEVADA

CITY           SKY/WX    TMP DP  RH WIND       PRES   REMARKS
TONOPAH        CLEAR     53  17  24 N13       30.20R
$$

NVZ017-020-022-281000-
SOUTHERN NEVADA

CITY           SKY/WX    TMP DP  RH WIND       PRES   REMARKS
LAS VEGAS      CLEAR     80  21  11 E5        29.98R
N. LAS VEGAS   CLEAR     79  23  12 E5        29.98S
NELLIS AFB     CLEAR     78  26  15 NE12      29.96R
HENDERSON      CLEAR     75  27  17 NE6       30.03R
MERCURY        CLEAR     63  20  19 VRB3      30.04R
$$



USA.gov is the U.S. government's official web portal to all federal, state and local government web resources and services.